Regional Weather Roundup
Issued by NWS Bismarck, ND

Home | Current Version | Previous Version | Text Only | Print | Product List | Glossary On
Versions: 1 2 3 4 5 6 7 8 9 10 11 12 13 14 15 16 17 18 19 20 21 22 23 24 25 26 27 28 29 30 31 32 33 34 35 36 37 38 39 40 41 42 43 44 45 46 47 48 49 50
000
ASUS43 KBIS 280959
RWRBIS

NWR BROADCAST TEXT
NATIONAL WEATHER SERVICE BISMARCK ND
400 AM CST SUN DEC 28 2014

NOTE: "FAIR" INDICATES FEW OR NO CLOUDS BELOW 12,000 FEET WITH NO
SIGNIFICANT WEATHER AND/OR OBSTRUCTIONS TO VISIBILITY.


CITY           SKY/WX    TMP DP  RH WIND       PRES   REMARKS
WILLISTON      CLOUDY    16  11  80 E5        30.03R WCI   9
MINOT          CLOUDY     0  -7  72 N9        30.10R WCI -15
MINOT AFB      NOT AVBL
BISMARCK       LGT SNOW  16  14  92 NE3       30.06R FOG
DICKINSON      NOT AVBL
GARRISON         N/A     11   6  81 NE6       30.06R WCI   1
HETTINGER ARPT CLEAR      6   3  87 CALM      29.96S
JAMESTOWN      NOT AVBL
CARRINGTON     CLOUDY     7   5  92 MISG      30.11R
CROSBY         FAIR       7   5  92 E12       30.07S WCI  -9
OAKES            N/A     16  16 100 N10       30.07R WCI   3
$$

CITY           SKY/WX    TMP DP  RH WIND       PRES   REMARKS
GRAND FORKS    CLEAR     -1  -6  79 N13       30.21R WCI -19
GRAND FORKS AF CLOUDY     1  -2  85 N10       30.20R WCI -14
DEVILS LAKE    CLOUDY     1  -6  71 NE7       30.12R WCI -11
FARGO          CLOUDY    11   6  81 N20       30.12S WCI  -7
GWINNER        CLOUDY    18  16  93 N14       30.09R WCI   4
$$

CITY           SKY/WX    TMP DP  RH WIND       PRES   REMARKS
ABERDEEN       CLOUDY    11   6  81 CALM      30.08S
MOBRIDGE       MOCLDY    10   7  87 CALM      30.01R
BUFFALO          N/A     17   9  70 NW5       29.86S WCI  10
RAPID CITY     CLEAR     10   3  73 CALM      29.96S
GLASGOW        CLOUDY    19  15  84 E20       29.93R WCI   3
SIDNEY         CLOUDY    18  14  86 N8        30.01R WCI   7
WOLF POINT     CLOUDY    18  13  80 E16       29.99R WCI   3
GLENDIVE       CLOUDY    18  16  93 NE3       29.94S
MILES CITY     MOCLDY    21  16  81 S6        29.91R WCI  13
BAKER          PTCLDY    17  11  77 W5        29.92S WCI  10
$$

CITY           SKY/WX    TMP DP  RH WIND       PRES   REMARKS
BILLINGS       CLOUDY    24  12  60 SW10      29.84F WCI  14
GREAT FALLS    CLOUDY    28  24  85 SW9       29.78R WCI  19
$$



USA.gov is the U.S. government's official web portal to all federal, state and local government web resources and services.